• In Germany
  • List of Countries
  • For 7 days
  • Water Temperature
  • Satellite Maps
  • Weather Map
  • Weather Widgets
  • user-avatar
    Login

    Hourly Weather Porto Velho

    Today, 25 September, Tuesday

    Time Temperature Precipitation Wind Pressure Humidity
    00:00 +27°C° 0 mm 0 mps 750 mmHg 56%
    01:00 +26°C° 0 mm 0 mps 749 mmHg 57%
    02:00 +26°C° 0 mm 0 mps 749 mmHg 59%
    03:00 +25°C° 0 mm 0 mps 749 mmHg 60%
    04:00 +25°C° 0 mm 0 mps 749 mmHg 61%
    05:00 +25°C° 0 mm 0 mps 749 mmHg 62%
    06:00 +27°C° 0 mm 0 mps 750 mmHg 58%
    07:00 +28°C° 0 mm 0 mps 750 mmHg 53%
    08:00 +30°C° 0 mm 0 mps 751 mmHg 48%
    09:00 +34°C° 0 mm 0 mps 751 mmHg 41%
    10:00 +37°C° 0 mm 0 mps 751 mmHg 33%
    11:00 +41°C° 0 mm 0 mps 751 mmHg 25%
    12:00 +40°C° 0 mm 0 mps 750 mmHg 26%
    13:00 +42°C° 0 mm 1 mps 749 mmHg 27%
    14:00 +41°C° 0 mm 1 mps 748 mmHg 28%
    15:00 +40°C° 0 mm 1 mps 748 mmHg 30%
    16:00 +39°C° 0 mm 1 mps 747 mmHg 32%
    17:00 +37°C° 0 mm 1 mps 747 mmHg 34%
    18:00 +35°C° 0 mm 1 mps 747 mmHg 38%
    19:00 +34°C° 0 mm 1 mps 747 mmHg 42%
    20:00 +32°C° 0 mm 1 mps 748 mmHg 45%
    21:00 +31°C° 0 mm 1 mps 748 mmHg 48%
    22:00 +28°C° 0 mm 0 mps 748 mmHg 50%
    23:00 +28°C° 0 mm 0 mps 749 mmHg 53%

    Tomorrow, 26 September, Wednesday

    Time Temperature Precipitation Wind Pressure Humidity
    00:00 +27°C° 0 mm 0 mps 748 mmHg 54%
    01:00 +27°C° 0 mm 0 mps 748 mmHg 56%
    02:00 +26°C° 0 mm 0 mps 748 mmHg 58%
    03:00 +26°C° 0 mm 0 mps 748 mmHg 59%
    04:00 +25°C° 0 mm 0 mps 748 mmHg 61%
    05:00 +25°C° 0 mm 0 mps 748 mmHg 63%
    06:00 +27°C° 0 mm 0 mps 749 mmHg 58%
    07:00 +29°C° 0 mm 0 mps 749 mmHg 53%
    08:00 +30°C° 0 mm 0 mps 750 mmHg 48%
    09:00 +35°C° 0 mm 1 mps 750 mmHg 43%
    10:00 +37°C° 0 mm 1 mps 750 mmHg 37%
    11:00 +41°C° 0 mm 1 mps 751 mmHg 31%
    12:00 +40°C° 0 mm 1 mps 749 mmHg 31%
    13:00 +40°C° 0 mm 1 mps 748 mmHg 32%
    14:00 +40°C° 0 mm 1 mps 747 mmHg 32%
    15:00 +39°C° 0 mm 1 mps 747 mmHg 34%
    16:00 +39°C° 0 mm 1 mps 746 mmHg 35%
    17:00 +35°C° 0 mm 0 mps 746 mmHg 36%
    18:00 +33°C° 0 mm 0 mps 746 mmHg 42%
    19:00 +31°C° 0 mm 0 mps 747 mmHg 47%
    20:00 +29°C° 0 mm 0 mps 747 mmHg 52%
    21:00 +28°C° 0 mm 0 mps 748 mmHg 54%
    22:00 +28°C° 0 mm 0 mps 748 mmHg 55%
    23:00 +27°C° 0 mm 0 mps 748 mmHg 56%

    Day after tomorrow, 27 September, Thursday

    Time Temperature Precipitation Wind Pressure Humidity
    00:00 +27°C° 0 mm 0 mps 748 mmHg 57%
    01:00 +27°C° 0 mm 0 mps 747 mmHg 58%
    02:00 +26°C° 0 mm 0 mps 747 mmHg 59%
    03:00 +26°C° 0 mm 0 mps 747 mmHg 60%
    04:00 +26°C° 0 mm 0 mps 747 mmHg 61%
    05:00 +27°C° 0 mm 1 mps 747 mmHg 62%
    06:00 +29°C° 0 mm 1 mps 748 mmHg 58%
    07:00 +30°C° 0 mm 1 mps 749 mmHg 55%
    08:00 +32°C° 0 mm 1 mps 750 mmHg 51%
    09:00 +35°C° 0 mm 1 mps 750 mmHg 44%
    10:00 +37°C° 0 mm 1 mps 750 mmHg 38%
    11:00 +41°C° 0 mm 1 mps 750 mmHg 31%
    12:00 +41°C° 0 mm 1 mps 749 mmHg 30%
    13:00 +41°C° 0 mm 1 mps 747 mmHg 29%
    14:00 +42°C° 0 mm 1 mps 746 mmHg 29%
    15:00 +40°C° 0 mm 1 mps 746 mmHg 32%
    16:00 +39°C° 0 mm 1 mps 746 mmHg 35%
    17:00 +37°C° 0 mm 1 mps 746 mmHg 38%
    18:00 +34°C° 0.4 mm 1 mps 746 mmHg 48%
    19:00 +32°C° 0.4 mm 1 mps 747 mmHg 59%
    20:00 +29°C° 0.4 mm 1 mps 747 mmHg 69%
    21:00 +28°C° 0.6 mm 1 mps 748 mmHg 74%
    22:00 +28°C° 0.6 mm 1 mps 748 mmHg 80%
    23:00 +27°C° 0.6 mm 1 mps 749 mmHg 86%

    28 September, Friday

    Time Temperature Precipitation Wind Pressure Humidity
    00:00 +26°C° 0.2 mm 1 mps 748 mmHg 87%
    01:00 +24°C° 0.2 mm 0 mps 748 mmHg 88%
    02:00 +24°C° 0.2 mm 0 mps 748 mmHg 89%
    03:00 +24°C° 0 mm 0 mps 748 mmHg 89%
    04:00 +24°C° 0 mm 0 mps 748 mmHg 89%
    05:00 +24°C° 0 mm 0 mps 748 mmHg 90%
    06:00 +25°C° 0 mm 0 mps 749 mmHg 83%
    07:00 +27°C° 0 mm 0 mps 750 mmHg 76%
    08:00 +29°C° 0 mm 0 mps 750 mmHg 70%
    09:00 +32°C° 0 mm 0 mps 750 mmHg 58%
    10:00 +37°C° 0 mm 1 mps 750 mmHg 46%
    11:00 +41°C° 0 mm 1 mps 750 mmHg 34%
    12:00 +41°C° 0 mm 1 mps 749 mmHg 34%
    13:00 +40°C° 0 mm 1 mps 748 mmHg 35%
    14:00 +40°C° 0 mm 1 mps 747 mmHg 35%
    15:00 +40°C° 0 mm 1 mps 747 mmHg 36%
    16:00 +39°C° 0 mm 1 mps 746 mmHg 37%
    17:00 +39°C° 0 mm 1 mps 746 mmHg 37%
    18:00 +36°C° 0 mm 1 mps 747 mmHg 43%
    19:00 +34°C° 0 mm 1 mps 747 mmHg 49%
    20:00 +32°C° 0 mm 1 mps 747 mmHg 55%
    21:00 +31°C° 0 mm 1 mps 748 mmHg 58%
    22:00 +30°C° 0 mm 1 mps 748 mmHg 62%
    23:00 +29°C° 0 mm 1 mps 748 mmHg 66%

    29 September, Saturday

    Time Temperature Precipitation Wind Pressure Humidity
    00:00 +27°C° 0.1 mm 0 mps 748 mmHg 68%
    01:00 +26°C° 0.1 mm 0 mps 747 mmHg 71%
    02:00 +26°C° 0.1 mm 0 mps 747 mmHg 74%
    03:00 +25°C° 0.8 mm 0 mps 747 mmHg 79%
    04:00 +24°C° 0.8 mm 0 mps 748 mmHg 84%
    05:00 +26°C° 0.8 mm 1 mps 748 mmHg 90%
    06:00 +27°C° 0.4 mm 1 mps 749 mmHg 87%
    07:00 +26°C° 0.4 mm 0 mps 749 mmHg 84%
    08:00 +27°C° 0.4 mm 0 mps 750 mmHg 81%
    09:00 +32°C° 0 mm 1 mps 750 mmHg 67%
    10:00 +35°C° 0 mm 1 mps 750 mmHg 53%
    11:00 +40°C° 0 mm 1 mps 750 mmHg 39%
    12:00 +40°C° 0 mm 1 mps 749 mmHg 38%
    13:00 +40°C° 0 mm 1 mps 748 mmHg 36%
    14:00 +40°C° 0 mm 1 mps 747 mmHg 35%
    15:00 +39°C° 0 mm 1 mps 746 mmHg 37%
    16:00 +39°C° 0 mm 1 mps 746 mmHg 40%
    17:00 +37°C° 0 mm 1 mps 746 mmHg 42%
    18:00 +35°C° 0 mm 1 mps 746 mmHg 46%
    19:00 +34°C° 0 mm 1 mps 747 mmHg 50%
    20:00 +30°C° 0 mm 0 mps 747 mmHg 54%
    21:00 +30°C° 0 mm 0 mps 747 mmHg 56%
    22:00 +29°C° 0 mm 0 mps 748 mmHg 59%
    23:00 +28°C° 0 mm 0 mps 748 mmHg 61%

    30 September, Sunday

    Time Temperature Precipitation Wind Pressure Humidity
    00:00 +28°C° 0 mm 0 mps 747 mmHg 63%
    01:00 +27°C° 0 mm 0 mps 747 mmHg 65%
    02:00 +27°C° 0 mm 0 mps 746 mmHg 67%
    03:00 +26°C° 0 mm 0 mps 747 mmHg 68%
    04:00 +26°C° 0 mm 0 mps 747 mmHg 69%
    05:00 +26°C° 0 mm 0 mps 747 mmHg 71%
    06:00 +27°C° 0.1 mm 0 mps 748 mmHg 69%
    07:00 +28°C° 0.1 mm 0 mps 749 mmHg 67%
    08:00 +29°C° 0.1 mm 0 mps 750 mmHg 65%
    09:00 +34°C° 0 mm 1 mps 749 mmHg 55%
    10:00 +37°C° 0 mm 1 mps 749 mmHg 44%
    11:00 +41°C° 0 mm 1 mps 749 mmHg 33%
    12:00 +41°C° 0 mm 1 mps 748 mmHg 32%
    13:00 +41°C° 0 mm 1 mps 747 mmHg 31%
    14:00 +41°C° 0 mm 1 mps 746 mmHg 30%
    15:00 +41°C° 0 mm 1 mps 746 mmHg 32%
    16:00 +40°C° 0 mm 1 mps 746 mmHg 33%
    17:00 +39°C° 0 mm 1 mps 745 mmHg 35%
    18:00 +36°C° 0 mm 1 mps 746 mmHg 40%
    19:00 +34°C° 0 mm 1 mps 746 mmHg 45%
    20:00 +33°C° 0 mm 1 mps 747 mmHg 50%
    21:00 +32°C° 0 mm 1 mps 747 mmHg 53%
    22:00 +31°C° 0 mm 1 mps 748 mmHg 56%
    23:00 +30°C° 0 mm 1 mps 748 mmHg 59%
    Show more